User: anonymous   Login
Location: Potawatomi Wildlife Park
(41.2308°N, 86.1050°W)
Time: 22:38:38
(UTC-04:00)
Language:

SL-16 R/B - Orbit

View from above orbital plane
View from above orbital plane
View from above satellite
View from above satellite

Ground track
Ground track

The orbit data is extracted from the following two-line orbital elements,

1 27006U 01056F   16207.86821005 -.00000007  00000-0  39205-4 0  9994
2 27006  99.2645 353.9359 0015549  81.4796  34.0441 13.70970124731784
Epoch (UTC): 25 July 2016 20:50:13
Eccentricity: 0.0015549
inclination: 99.2645°
perigee height: 984 km
apogee height: 1007 km
right ascension of ascending node: 353.9359°
argument of perigee: 81.4796°
revolutions per day: 13.70970124
mean anomaly at epoch: 34.0441°
orbit number at epoch: 73178

The dashed part of the orbit path shows where the satellite is in the earth's shadow,  

DLR